Tracking 31027 objects as of 19-Jul-2025
HD Live streaming from Space Station
objects crossing your sky now

STARLINK-3727

Track STARLINK-3727 now!
10-day predictions
STARLINK-3727 is classified as:


NORAD ID: 52125
Int'l Code: 2022-029AP
Perigee: 545.9 km
Apogee: 547.9 km
Inclination: 53.2 °
Period: 95.4 minutes
Semi major axis: 6917 km
RCS: Unknown
Launch date: March 19, 2022
Source: United States (US)
Launch site: AIR FORCE EASTERN TEST RANGE (AFETR)
Your satellite tracking list
SL-8 R/B
Track 1 satellite(s)




NASA's NSSDC Master Catalog

Two Line Element Set (TLE):
1 52125U 22029AP  25199.00127527  .00000162  00000-0  28267-4 0  9998
2 52125  53.2175  42.6773 0001418  91.4616 268.6539 15.08837478185509
Source of the keplerian elements: AFSPC